This is the latest recevied weather packets stored in our database for station/object W8LMG. If no packets are shown the sender has not sent any weather packets the latest 10 day(s).
| Time | Temp. | Humidity | Pressure | Rain* | Wind** | Luminosity | Snow |
|---|---|---|---|---|---|---|---|
| 1777852551 | 10° C | 47% | 1015.6 hPa | 0 mm | - | 10 W/m² | - |
| 1777852247 | 10° C | 47% | 1015.5 hPa | 0 mm | - | 13 W/m² | - |
| 1777851945 | 10.56° C | 46% | 1015.7 hPa | 0 mm | - | 16 W/m² | - |
| 1777851643 | 10.56° C | 46% | 1015.5 hPa | 0 mm | - | 20 W/m² | - |
| 1777851339 | 11.11° C | 44% | 1015.5 hPa | 0 mm | - | 22 W/m² | - |
| 1777851035 | 11.11° C | 40% | 1015.5 hPa | 0 mm | - | 23 W/m² | - |
| 1777850732 | 11.67° C | 39% | 1015.4 hPa | 0 mm | - | 27 W/m² | - |
| 1777850430 | 12.22° C | 38% | 1015.5 hPa | 0 mm | - | 36 W/m² | - |
| 1777850127 | 12.22° C | 36% | 1015.5 hPa | 0 mm | - | 43 W/m² | - |
| 1777849824 | 12.22° C | 33% | 1015.5 hPa | 0 mm | - | 32 W/m² | - |
| 1777849520 | 12.78° C | 40% | 1015.5 hPa | 0 mm | - | 35 W/m² | - |
| 1777849218 | 12.22° C | 37% | 1015.5 hPa | 0 mm | - | 35 W/m² | - |
| 1777848915 | 13.33° C | 36% | 1015.6 hPa | 0 mm | - | 37 W/m² | - |
| 1777848610 | 13.89° C | 34% | 1015.4 hPa | 0 mm | - | 74 W/m² | - |
| 1777848308 | 14.44° C | 30% | 1015.5 hPa | 0 mm | - | 107 W/m² | - |
| 1777848005 | 14.44° C | 28% | 1015.6 hPa | 0 mm | - | 120 W/m² | - |
| 1777847703 | 14.44° C | 33% | 1015.4 hPa | 0 mm | - | 132 W/m² | - |
| 1777847398 | 15° C | 28% | 1015.4 hPa | 0 mm | - | 145 W/m² | - |
| 1777847097 | 15° C | 31% | 1015.4 hPa | 0 mm | - | 158 W/m² | - |
| 1777846794 | 15° C | 29% | 1015.5 hPa | 0 mm | - | 172 W/m² | - |
| 1777846492 | 15° C | 28% | 1015.5 hPa | 0 mm | - | 179 W/m² | - |
| 1777846189 | 15° C | 28% | 1015.5 hPa | 0 mm | - | 200 W/m² | - |
| 1777845885 | 15° C | 30% | 1015.5 hPa | 0 mm | - | 214 W/m² | - |
| 1777845583 | 15° C | 28% | 1015.5 hPa | 0 mm | - | 229 W/m² | - |
| 1777845279 | 13.89° C | 32% | 1015.3 hPa | 0 mm | - | 243 W/m² | - |
* Rain latest hour (hover to see other rain measurements)
** Current wind speed in m/s (hover to see current wind gust speed)